Tracking 30743 objects as of 23-Jun-2025
HD Live streaming from Space Station
objects crossing your sky now

GEESAT 1-04

Track GEESAT 1-04 now!
10-day predictions


NORAD ID: 52788
Int'l Code: 2022-058D
Perigee: 584.2 km
Apogee: 585.9 km
Inclination: 50.0 °
Period: 96.2 minutes
Semi major axis: 6956 km
RCS: Unknown
Launch date: June 2, 2022
Source: People's Republic of China (PRC)
Launch site: Xichang Space Center, China (XSC)
Your satellite tracking list
Your tracking list is empty




NASA's NSSDC Master Catalog

Two Line Element Set (TLE):
1 52788U 22058D   25173.58512082  .00002675  00000-0  25508-3 0  9999
2 52788  50.0042  88.4411 0001192 231.9720 128.1116 14.96435588166271
Source of the keplerian elements: AFSPC